User: anonymous   Login
Location: Brno
(49.2000°N, 16.6330°E)
Time: 04:36:58
(UTC+01:00)
Language:

Cosmos 1603 - Orbit

View from above orbital plane
View from above orbital plane
View from above satellite
View from above satellite

Ground track
Ground track

The orbit data is extracted from the following two-line orbital elements,

1 15333U 84106A   16042.20830540 -.00000297  00000-0 -13113-3 0  9991
2 15333  71.0261  42.5353 0021981 239.9639 119.9302 14.14025507618715
Epoch (UTC): 11 February 2016 04:59:57
Eccentricity: 0.0021981
inclination: 71.0261°
perigee height: 830 km
apogee height: 861 km
right ascension of ascending node: 42.5353°
argument of perigee: 239.9639°
revolutions per day: 14.14025507
mean anomaly at epoch: 119.9302°
orbit number at epoch: 61871

The dashed part of the orbit path shows where the satellite is in the earth's shadow,  

DLR